Weather History for Miles City, MT

Change the Weather History Date:

Wednesday, February 13, 2013

  Actual Average Record
Temperature  
Mean Temperature 41 °F 24 °F  
Max Temperature 48 °F 35 °F 57 °F (1999)
Min Temperature 34 °F 13 °F -25 °F (1949)
Degree Days  
Heating Degree Days 24 41  
Month to date heating degree days 407 554  
Since 1 July heating degree days 4687 5150  
Cooling Degree Days 0 0  
Month to date cooling degree days 0 0  
Year to date cooling degree days 0 0  
Moisture  
Dew Point 24 °F    
Average Humidity 53    
Maximum Humidity 64    
Minimum Humidity 42    
Precipitation  
Precipitation 0.00 in 0.01 in 0.10 in (1980)
Month to date precipitation T 0.09  
Year to date precipitation 0.18 0.41  
Sea Level Pressure  
Sea Level Pressure 29.86 in    
Wind  
Wind Speed 19 mph (WNW)    
Max Wind Speed 31 mph    
Max Gust Speed 39 mph    
Visibility 10 miles    
Events      
T = Trace of Precipitation, MM = Missing Value Source: NWS Daily Summary

Daily Weather History Graph

Daily Weather History Graph

Search for Another Location

Airport:

Trip Planner

Search our weather history database for the weather conditions in past years. The results will help you decide how hot, cold, wet, or windy it might be!

Date:

Astronomy

Feb. 13, 2013 Rise Set
Actual Time 7:09 AM MST 5:26 PM MST
Civil Twilight 6:38 AM MST 5:57 PM MST
Nautical Twilight 6:03 AM MST 6:33 PM MST
Astronomical Twilight 5:28 AM MST 7:07 PM MST
Moon 8:24 AM MST (2/13) 9:50 PM MST (2/13)
Length of Visible Light 11h 19m
Length of Day
10h 16m
Waxing Crescent, 14% of the Moon is Illuminated
Feb 13
Waxing Crescent
Feb 17
First Quarter
Feb 25
Full
Mar 4
Last Quarter
Mar 11
New

Hourly Weather History & Observations

Time (MST) Temp. Windchill Dew Point Humidity Pressure Visibility Wind Dir Wind Speed Gust Speed Precip Events Conditions
12:53 AM 36.0 °F 27.1 °F 24.1 °F 62% 29.82 in 10.0 mi WSW 13.8 mph - N/A   Clear
1:53 AM 35.1 °F 26.4 °F 24.1 °F 64% 29.80 in 10.0 mi West 12.7 mph - N/A   Mostly Cloudy
2:53 AM 37.0 °F 29.8 °F 24.1 °F 59% 29.78 in 10.0 mi West 10.4 mph - N/A   Overcast
3:53 AM 37.9 °F 28.9 °F 24.1 °F 57% 29.75 in 10.0 mi West 16.1 mph 23.0 mph N/A   Overcast
4:53 AM 39.0 °F 31.0 °F 24.1 °F 55% 29.75 in 10.0 mi WNW 13.8 mph - N/A   Overcast
5:53 AM 41.0 °F 31.1 °F 24.1 °F 51% 29.75 in 10.0 mi West 23.0 mph 33.4 mph N/A   Overcast
6:53 AM 39.0 °F 30.6 °F 25.0 °F 57% 29.77 in 10.0 mi WNW 15.0 mph 21.9 mph N/A   Overcast
7:53 AM 41.0 °F 32.8 °F 25.0 °F 53% 29.78 in 10.0 mi WNW 16.1 mph 24.2 mph N/A   Overcast
8:53 AM 41.0 °F 35.2 °F 26.1 °F 55% 29.80 in 10.0 mi WNW 9.2 mph - N/A   Overcast
9:53 AM 45.0 °F 36.9 °F 27.0 °F 49% 29.80 in 10.0 mi WNW 20.7 mph 28.8 mph N/A   Scattered Clouds
10:53 AM 46.0 °F 36.5 °F 28.0 °F 50% 29.81 in 10.0 mi NW 31.1 mph 36.8 mph N/A   Partly Cloudy
11:53 AM 45.0 °F 36.9 °F 28.9 °F 53% 29.81 in 10.0 mi WNW 20.7 mph 32.2 mph N/A   Partly Cloudy
12:53 PM 48.0 °F - 27.0 °F 44% 29.81 in 10.0 mi WNW 25.3 mph 33.4 mph N/A   Scattered Clouds
1:53 PM 46.9 °F - 26.1 °F 44% 29.82 in 10.0 mi NW 21.9 mph 35.7 mph N/A   Scattered Clouds
2:53 PM 46.9 °F - 25.0 °F 42% 29.84 in 10.0 mi NW 24.2 mph 33.4 mph N/A   Clear
3:53 PM 43.0 °F 33.3 °F 25.0 °F 49% 29.88 in 10.0 mi NNW 25.3 mph 38.0 mph N/A   Clear
4:53 PM 42.1 °F 33.6 °F 23.0 °F 47% 29.90 in 10.0 mi NW 18.4 mph 26.5 mph N/A   Clear
5:53 PM 37.9 °F 28.2 °F 24.1 °F 57% 29.96 in 10.0 mi NW 18.4 mph - N/A   Clear
6:53 PM 36.0 °F 27.1 °F 24.1 °F 62% 29.98 in 10.0 mi NW 13.8 mph - N/A   Clear
7:53 PM 36.0 °F 26.3 °F 23.0 °F 59% 30.00 in 10.0 mi NW 16.1 mph 25.3 mph N/A   Overcast
8:53 PM 35.1 °F 23.5 °F 19.0 °F 52% 30.01 in 10.0 mi NW 21.9 mph 31.1 mph N/A   Overcast
9:53 PM 34.0 °F 23.0 °F 19.9 °F 56% 30.01 in 10.0 mi WNW 18.4 mph 26.5 mph N/A   Overcast
10:53 PM 34.0 °F 23.4 °F 19.9 °F 56% 30.01 in 10.0 mi NW 17.3 mph 26.5 mph N/A   Overcast
11:53 PM 34.0 °F 21.8 °F 19.9 °F 56% 30.03 in 10.0 mi NW 23.0 mph 36.8 mph N/A   Mostly Cloudy